sat.trackr.live / text

‹ back to catalog

BANDWAGON-4 OBJECT N

NORAD 66305 · 2025-248N

PAYLOAD ACTIVE UNKNOWN

§ Identity

Operator
Country
TBD
Launch date
2025-11-02
Launch site
AFETR
Launch vehicle
Mass (kg)
RCS (m²)

External: N2YO · Heavens-Above · Gunter

§ Orbital elements

Epoch: 2026-05-24T23:02:16.096128Z

Period
94.30 min
Inclination
45.4202°
Eccentricity
0.0013116
Mean motion
15.27016767 rev/d
Perigee alt
475.7 km
Apogee alt
493.7 km
Semi-major
6,862.9 km
B*
5.4217e-4
RAAN
239.2114°
Arg perigee
282.4033°
Mean anomaly
77.5388°
Rev number
2,892

§ Raw data

BANDWAGON-4 OBJECT N1 66305U 25248N   26144.95990852  .00014400  00000+0  54217-3 0  99952 66305  45.4202 239.2114 0013116 282.4033  77.5388 15.27016767 28926

JSON: /api/v1/satellites/66305 · /tle

For live sub-satellite position, see the globe view (requires WebGL).

§ Visibility from observer

Set your observer location to see the next 7 days of passes ≥ 10°. The values pass through the URL so the page stays shareable.

No JS? Fill the form by hand. The geolocation button needs JavaScript.